Wind_Speed
34 35 36 37 38 38 39 40 41 42 43 43 44 45 45 46 47 48 49 50 51 52 53 53 54 54 54 54 54 54 55 56 57 58 59 60 61 62 64 65 66 67
35 36 37 38 39 39 40 41 42 43 44 45 46 46 47 48 49 50 50 51 52 53 54 54 54 54 54 54 55 55 56 57 59 60 61 62 63 64 66 67 68 69
36 37 38 38 39 40 41 42 43 44 45 46 47 47 48 49 50 51 51 52 53 53 54 54 54 54 54 55 56 57 58 59 60 61 62 63 65 66 68 69 70 72
37 38 38 39 40 41 42 43 44 45 46 47 47 48 49 50 50 51 51 52 52 52 53 53 53 54 55 56 57 58 59 61 62 63 64 66 67 68 70 71 73 74
38 38 39 40 41 42 43 44 45 46 46 47 48 48 49 50 50 50 51 51 52 52 53 54 54 55 56 57 59 60 61 63 64 66 67 68 69 70 71 73 74 75
39 40 41 42 43 44 45 45 46 46 47 47 48 48 49 50 50 51 51 52 52 53 54 55 56 57 58 59 61 62 63 65 66 68 69 70 71 72 74 75 75 76
41 42 43 44 45 45 46 46 47 47 48 48 49 49 50 51 51 52 53 53 54 55 56 57 58 59 60 62 63 64 66 67 68 70 71 72 73 74 75 75 75 75
44 44 45 45 46 47 47 48 48 49 49 50 50 51 51 52 53 54 54 55 56 57 58 59 60 62 63 64 66 67 68 69 70 71 72 73 75 75 75 75 75 75
46 46 46 47 47 48 49 49 50 50 51 51 51 52 53 54 55 55 56 57 58 59 60 62 63 64 65 67 68 69 70 71 72 73 74 75 75 75 75 75 75 75
47 47 47 48 49 50 50 51 51 51 52 52 53 54 54 55 56 57 58 59 60 62 63 64 65 66 67 68 69 70 72 73 74 74 75 75 75 75 75 75 75 75
47 48 49 50 50 51 52 52 52 52 53 54 54 55 56 57 58 59 60 61 63 64 65 66 67 68 69 70 71 72 73 74 74 75 75 75 75 75 75 76 75 75
49 50 51 52 52 53 53 53 53 54 55 56 57 57 58 59 60 62 63 64 65 66 67 68 69 70 71 72 73 74 74 74 75 75 75 75 75 76 76 76 75 74
51 52 52 53 53 53 54 54 55 56 57 58 59 60 61 62 63 64 65 66 67 68 69 70 71 72 72 73 74 74 74 74 75 75 75 76 76 76 75 74 73 73
53 53 53 54 54 55 55 56 57 59 60 61 62 63 63 64 65 66 67 68 69 69 71 72 73 73 74 74 74 74 74 75 75 75 76 75 75 74 73 73 72 73
54 54 54 55 56 56 57 59 60 61 62 63 64 64 65 66 67 68 69 70 70 71 72 73 74 74 74 74 74 75 75 75 75 75 75 74 73 72 72 72 74 75
55 55 56 57 58 59 60 61 62 63 64 64 65 66 67 68 69 70 71 71 72 73 74 74 75 75 75 75 75 76 75 75 75 75 74 73 72 72 73 74 76 78
56 57 58 59 60 62 62 63 63 64 65 66 67 68 69 70 71 72 73 73 74 74 75 75 75 75 76 76 76 76 76 75 74 74 73 73 73 73 75 76 78 81
58 59 60 61 62 63 63 63 64 65 66 68 69 70 71 72 73 73 74 74 74 75 75 75 75 76 76 76 76 76 75 74 74 73 73 73 74 76 78 80 82 84
60 61 62 62 63 63 64 65 66 67 69 70 71 72 73 73 74 74 74 74 75 75 76 76 76 76 76 76 76 75 74 74 73 73 74 75 77 79 81 84 86 87
62 62 63 63 63 64 66 67 68 70 71 72 72 73 73 73 73 73 74 74 75 75 76 76 76 76 76 76 75 74 73 73 73 74 76 78 80 83 85 87 89 90
63 63 64 65 66 67 68 69 70 71 72 72 73 73 73 73 73 73 74 75 75 76 76 76 76 76 76 75 74 73 73 74 75 76 78 81 83 85 87 89 90 90
64 65 66 67 68 69 70 71 71 72 72 72 72 72 72 72 73 74 74 75 75 75 76 76 76 75 74 73 73 74 75 76 77 79 81 83 85 87 88 89 90 90
67 68 68 69 70 70 71 71 71 71 71 71 71 71 72 72 73 74 74 75 75 75 75 75 74 73 73 73 75 76 77 78 80 82 84 85 86 87 88 89 90 91
68 69 69 70 70 70 71 70 70 70 70 70 71 71 72 73 73 74 74 74 74 73 73 73 73 73 74 76 77 78 80 81 83 84 85 85 86 86 87 89 90 92
69 69 69 69 69 69 69 69 69 70 70 70 71 71 72 73 73 74 73 73 72 72 72 72 74 75 77 78 80 81 83 84 85 85 85 85 86 86 87 89 91 92
68 68 68 68 68 68 69 69 69 69 70 71 71 72 72 72 72 72 71 71 71 72 73 75 76 78 79 81 82 83 84 85 85 85 85 85 86 88 89 90 91 92
Wind_Direction
278 279 279 280 281 282 283 284 284 285 286 287 287 288 289 289 290 290 290 291 291 291 291 292 292 293 293 293 294 294 294 295 295 296 297 298 299 300 300 301 302 302
276 277 278 279 281 282 283 284 285 286 286 287 287 288 288 289 289 289 290 290 290 290 291 291 291 292 292 293 293 293 294 295 296 296 297 298 299 300 301 302 302 302
275 276 278 280 282 283 284 284 285 285 285 286 286 287 287 288 288 288 288 289 289 289 290 290 290 291 292 292 293 293 294 295 296 297 298 299 300 301 301 301 301 301
275 277 278 280 281 282 282 283 283 283 284 285 285 286 286 287 287 287 287 287 288 288 289 289 290 291 291 292 293 294 295 296 297 298 299 300 300 301 301 300 300 300
275 277 278 279 280 280 281 281 282 283 284 284 285 286 286 286 286 286 287 287 287 288 289 289 290 291 292 293 294 295 296 297 298 299 299 300 300 300 300 300 300 300
276 277 278 278 279 280 281 282 283 284 284 285 286 286 286 286 286 286 287 287 287 288 289 290 291 292 293 294 295 296 297 298 298 299 299 299 299 299 299 300 300 301
276 277 277 278 279 280 282 283 284 285 285 286 286 286 286 286 287 287 287 287 288 289 290 291 292 293 294 294 295 296 297 298 298 299 299 299 299 299 300 300 300 301
276 277 277 279 280 281 283 284 284 285 285 285 285 286 286 286 287 287 287 288 289 290 290 291 292 293 294 295 296 297 297 298 298 298 298 299 299 299 300 300 300 300
276 277 278 280 281 282 283 283 284 284 284 285 285 285 286 286 286 287 287 288 289 290 291 292 293 294 295 296 297 297 297 298 298 298 298 299 299 299 299 300 300 300
276 277 279 280 281 282 282 282 283 283 284 284 284 285 285 285 286 287 287 288 290 291 292 293 294 295 295 296 296 297 297 298 298 298 298 298 299 299 299 299 300 300
276 278 279 280 280 280 281 281 282 282 283 284 284 284 285 286 287 288 289 290 292 293 293 294 294 295 296 296 297 297 297 297 298 298 298 298 299 299 299 300 300 299
277 278 278 279 279 280 280 281 282 282 283 283 284 285 286 287 289 290 291 292 293 293 294 294 295 295 296 296 297 297 297 297 297 297 298 298 299 299 300 300 300 299
276 277 277 278 279 280 281 281 282 283 283 284 285 287 288 290 291 292 292 293 293 294 294 294 295 295 295 296 296 296 296 297 297 297 298 299 299 300 300 300 300 300
276 276 277 278 279 280 281 282 282 283 284 285 287 289 290 291 292 292 293 293 293 294 294 294 294 294 295 295 295 296 296 297 297 298 299 299 300 300 301 301 302 302
276 277 277 278 279 280 281 282 283 284 286 288 289 290 291 292 292 293 293 293 293 293 293 293 294 294 295 295 295 296 297 297 298 299 300 300 301 301 302 302 303 303
276 277 278 279 280 281 282 283 285 287 288 289 290 291 292 292 293 293 293 292 292 292 292 293 294 295 295 295 296 297 297 298 299 300 301 301 301 302 302 303 304 304
277 278 279 280 281 282 284 285 287 289 290 290 291 292 292 292 292 292 292 292 292 292 293 294 295 295 296 296 297 298 298 299 300 301 301 302 302 303 303 304 304 304
278 279 280 281 283 284 286 287 289 289 290 291 291 292 292 292 292 292 292 292 293 293 294 295 295 296 297 297 298 299 300 300 301 301 302 303 303 304 304 304 304 304
279 280 281 283 285 286 287 288 289 290 290 291 291 291 291 291 291 292 292 292 293 294 295 295 296 297 297 298 299 300 300 301 301 302 303 304 305 305 305 304 304 304
280 282 283 285 286 287 288 288 289 290 290 290 290 290 290 291 291 291 292 293 293 294 295 296 296 297 298 298 299 300 300 301 303 304 305 305 305 305 305 304 304 304
282 283 284 285 286 287 287 288 289 289 289 290 289 289 290 290 291 291 292 293 293 294 295 295 296 297 298 299 299 300 302 303 304 305 305 305 305 305 304 304 304 304
282 283 284 285 286 286 287 287 288 288 288 288 288 289 289 290 291 291 292 292 293 294 295 296 297 297 298 299 301 302 304 304 305 305 305 304 304 304 304 304 304 304
282 283 284 285 285 286 286 286 287 287 287 287 288 289 289 290 290 291 292 292 293 295 296 297 298 299 300 302 303 303 304 304 304 304 304 303 303 303 304 304 304 305
282 283 283 284 284 285 285 285 286 286 287 287 288 288 289 290 290 291 292 293 295 296 296 298 299 301 302 303 303 303 303 303 303 303 302 303 303 303 304 304 305 306
282 282 282 283 283 284 284 285 285 286 287 287 288 288 289 290 291 292 293 295 295 297 298 300 301 302 302 302 302 302 302 302 302 302 302 303 303 304 304 305 305 306
281 281 282 282 283 283 284 284 285 286 286 287 288 289 290 291 292 294 295 296 297 298 300 301 301 301 301 301 301 301 301 302 302 302 303 303 304 304 304 305 305 306
Height
5848 5847 5846 5845 5845 5844 5843 5842 5841 5840 5838 5837 5836 5835 5833 5832 5830 5829 5827 5825 5823 5821 5818 5816 5814 5812 5810 5807 5805 5803 5800 5798 5795 5793 5790 5787 5784 5781 5777 5775 5771 5768
5844 5843 5842 5841 5841 5840 5839 5837 5836 5835 5834 5833 5831 5830 5829 5827 5826 5824 5822 5820 5818 5815 5813 5811 5809 5807 5805 5802 5800 5797 5795 5792 5790 5787 5784 5781 5778 5775 5771 5768 5764 5761
5840 5839 5838 5837 5836 5835 5834 5833 5832 5831 5829 5828 5827 5825 5824 5822 5821 5819 5817 5815 5812 5810 5808 5806 5804 5802 5800 5797 5795 5792 5789 5787 5784 5782 5779 5776 5772 5769 5765 5761 5757 5754
5835 5835 5834 5833 5832 5831 5830 5828 5827 5826 5824 5823 5822 5820 5819 5817 5815 5813 5811 5809 5807 5805 5803 5801 5799 5797 5794 5792 5789 5787 5784 5781 5778 5775 5773 5770 5767 5763 5758 5754 5750 5747
5831 5830 5829 5828 5827 5826 5824 5823 5822 5821 5819 5818 5816 5815 5813 5811 5810 5808 5806 5804 5802 5800 5797 5795 5793 5791 5789 5786 5784 5781 5778 5775 5772 5769 5766 5763 5760 5757 5752 5748 5743 5739
5826 5825 5824 5823 5821 5820 5819 5818 5817 5816 5814 5813 5811 5809 5808 5806 5804 5802 5800 5798 5796 5794 5792 5790 5787 5785 5783 5781 5778 5775 5772 5769 5766 5763 5759 5756 5752 5749 5745 5741 5737 5732
5821 5820 5818 5817 5816 5815 5814 5813 5812 5810 5809 5807 5805 5804 5802 5800 5798 5796 5794 5792 5790 5788 5786 5784 5782 5779 5777 5775 5772 5770 5767 5763 5760 5756 5753 5749 5745 5741 5737 5734 5730 5725
5815 5814 5813 5812 5811 5810 5809 5808 5806 5805 5803 5802 5800 5798 5797 5795 5793 5791 5789 5787 5785 5782 5780 5778 5776 5774 5771 5769 5766 5763 5760 5757 5754 5750 5746 5742 5738 5734 5730 5726 5722 5718
5810 5809 5808 5807 5806 5805 5804 5802 5801 5800 5798 5796 5795 5793 5791 5789 5787 5785 5783 5781 5779 5776 5774 5772 5770 5768 5765 5762 5759 5756 5753 5750 5746 5743 5739 5735 5731 5726 5723 5719 5715 5711
5804 5803 5802 5802 5801 5799 5798 5797 5795 5794 5792 5791 5789 5787 5785 5783 5781 5779 5777 5775 5772 5770 5768 5766 5763 5761 5758 5756 5753 5749 5746 5742 5739 5735 5731 5727 5724 5720 5716 5712 5707 5703
5799 5798 5797 5796 5795 5794 5793 5791 5790 5788 5787 5785 5783 5781 5779 5777 5774 5772 5770 5768 5766 5763 5761 5759 5756 5754 5751 5749 5746 5742 5739 5735 5731 5728 5724 5720 5716 5712 5708 5704 5700 5695
5794 5793 5791 5790 5789 5788 5787 5785 5784 5782 5781 5779 5777 5774 5772 5770 5768 5766 5763 5761 5759 5756 5754 5751 5749 5747 5744 5741 5738 5735 5731 5728 5724 5721 5717 5712 5708 5704 5700 5696 5692 5687
5788 5787 5785 5784 5783 5782 5781 5779 5778 5776 5774 5772 5770 5768 5766 5763 5761 5759 5756 5754 5751 5749 5746 5744 5741 5739 5737 5734 5731 5728 5724 5720 5717 5713 5709 5705 5701 5696 5692 5687 5683 5678
5782 5781 5780 5778 5777 5776 5774 5773 5771 5769 5767 5765 5763 5761 5759 5757 5754 5752 5749 5746 5744 5741 5738 5736 5733 5731 5729 5726 5723 5720 5717 5713 5709 5706 5702 5698 5693 5688 5684 5679 5675 5670
5776 5775 5774 5772 5771 5769 5768 5766 5764 5762 5760 5758 5756 5754 5752 5749 5747 5744 5741 5739 5736 5733 5730 5728 5725 5723 5721 5718 5715 5712 5709 5705 5701 5698 5694 5690 5686 5681 5676 5671 5666 5662
5770 5769 5767 5766 5764 5763 5761 5759 5757 5755 5753 5751 5749 5747 5744 5742 5739 5736 5733 5730 5727 5724 5722 5719 5717 5715 5712 5710 5707 5704 5701 5697 5693 5689 5685 5681 5678 5674 5669 5664 5659 5654
5763 5762 5761 5759 5757 5755 5753 5751 5750 5748 5746 5744 5741 5739 5736 5734 5731 5728 5725 5721 5718 5715 5713 5711 5709 5706 5703 5700 5698 5695 5692 5689 5685 5681 5677 5672 5669 5665 5661 5656 5652 5647
5757 5755 5754 5752 5750 5748 5746 5744 5743 5741 5738 5736 5733 5731 5728 5725 5723 5720 5716 5713 5710 5706 5704 5702 5700 5697 5694 5691 5689 5686 5683 5680 5677 5672 5669 5664 5659 5656 5651 5647 5643 5639
5750 5748 5746 5744 5743 5741 5739 5737 5735 5733 5730 5728 5725 5722 5720 5717 5714 5711 5708 5704 5701 5698 5695 5693 5691 5688 5685 5682 5680 5678 5674 5671 5668 5664 5660 5655 5651 5646 5641 5636 5632 5628
5742 5741 5739 5737 5736 5734 5732 5729 5727 5725 5722 5720 5717 5714 5711 5709 5705 5702 5699 5696 5693 5689 5686 5684 5682 5679 5677 5674 5671 5669 5666 5662 5659 5655 5651 5646 5641 5636 5631 5626 5621 5617
5735 5733 5732 5730 5728 5726 5724 5722 5719 5717 5715 5712 5709 5706 5703 5700 5697 5694 5691 5688 5684 5681 5678 5675 5673 5671 5668 5666 5663 5660 5657 5654 5650 5646 5642 5637 5631 5626 5620 5615 5610 5606
5727 5726 5724 5722 5720 5718 5716 5714 5711 5709 5707 5704 5701 5698 5695 5692 5689 5685 5682 5679 5676 5673 5670 5666 5664 5663 5660 5657 5654 5651 5648 5644 5641 5637 5634 5629 5623 5617 5611 5605 5599 5594
5719 5718 5716 5714 5712 5710 5707 5705 5703 5701 5699 5696 5693 5690 5687 5683 5680 5677 5674 5671 5668 5665 5662 5658 5655 5653 5651 5648 5645 5642 5638 5635 5632 5629 5625 5621 5616 5609 5603 5596 5589 5582
5711 5709 5708 5706 5703 5701 5699 5697 5695 5693 5690 5688 5686 5682 5679 5675 5672 5669 5666 5663 5660 5656 5654 5650 5647 5643 5641 5638 5635 5632 5629 5626 5623 5620 5616 5612 5607 5602 5595 5587 5579 5572
5703 5701 5699 5697 5695 5693 5691 5689 5687 5685 5682 5680 5677 5674 5671 5667 5664 5660 5658 5655 5651 5648 5645 5642 5638 5635 5632 5629 5625 5622 5619 5616 5613 5610 5606 5602 5597 5592 5587 5580 5572 5564
5695 5692 5691 5689 5687 5685 5683 5681 5679 5677 5674 5671 5669 5666 5663 5660 5656 5652 5649 5646 5642 5639 5636 5633 5630 5627 5623 5619 5616 5612 5609 5606 5602 5598 5595 5591 5587 5581 5577 5572 5566 5558